Location: Douglas
(31.5112°N, 82.8487°W)
Time: 19:32:52
(UTC-05:00)

OTV 5 (USA 277) - Visible Passes

Search period start: 21 January 2018 00:00
Search period end: 31 January 2018 00:00
Orbit: 404 x 417 km, 43.0° (Epoch: 07 September)

Date Brightness Start Highest point End Pass type
(mag) Time Alt. Az. Time Alt. Az. Time Alt. Az.
21 Jan ? 19:30:03 10° WSW 19:33:23 66° NNW 19:33:23 66° NNW visible
22 Jan ? 18:38:59 10° SW 18:42:20 73° SE 18:44:58 15° ENE visible
22 Jan ? 20:17:17 10° WNW 20:17:44 12° WNW 20:17:44 12° WNW visible
23 Jan ? 19:25:45 10° W 19:28:41 27° NNW 19:29:15 26° N visible
24 Jan ? 18:34:20 10° W 18:37:32 40° NNW 18:40:43 10° NE visible
25 Jan ? 19:21:57 10° NW 19:24:10 16° NNW 19:24:54 15° N visible
26 Jan ? 18:30:19 10° WNW 18:32:56 20° NNW 18:35:31 10° NNE visible
27 Jan ? 19:18:20 10° NNW 19:19:48 12° N 19:20:26 12° N visible
28 Jan ? 18:26:41 10° NW 18:28:29 14° N 18:30:18 10° NNE visible
29 Jan ? 19:14:08 10° NNW 19:15:29 12° N 19:15:58 12° NNE visible
30 Jan ? 19:59:58 10° NNW 20:00:09 11° NNW 20:00:09 11° NNW visible
